This is the latest recevied weather packets stored in our database for station/object XQ6AK-15. If no packets are shown the sender has not sent any weather packets the latest 10 day(s).
| Time | Temp. | Humidity | Pressure | Rain* | Wind** | Luminosity | Snow |
|---|---|---|---|---|---|---|---|
| 1787618059 | 8.89° C | 99% | 1009.3 hPa | 0 mm | - | 0 W/m² | - |
| 1787617754 | 8.89° C | 99% | 1009.2 hPa | 0 mm | - | 0 W/m² | - |
| 1787617453 | 8.89° C | 99% | 1009.5 hPa | 0 mm | - | 0 W/m² | - |
| 1787617148 | 8.89° C | 99% | 1009.3 hPa | 1.78 mm | - | 0 W/m² | - |
| 1787616843 | 8.89° C | 99% | 1009.6 hPa | 0 mm | - | 0 W/m² | - |
| 1787616543 | 8.89° C | 99% | 1009.5 hPa | 0 mm | - | 0 W/m² | - |
| 1787616241 | 8.89° C | 99% | 1009.6 hPa | 1.27 mm | - | 0 W/m² | - |
| 1787615940 | 8.89° C | 99% | 1009.4 hPa | 1.27 mm | - | 0 W/m² | - |
| 1787615635 | 8.89° C | 99% | 1009.6 hPa | 0 mm | - | 0 W/m² | - |
| 1787615330 | 8.89° C | 99% | 1009.5 hPa | 1.78 mm | - | 0 W/m² | - |
| 1787615027 | 8.89° C | 99% | 1009.8 hPa | 1.78 mm | - | 0 W/m² | - |
| 1787614723 | 8.89° C | 99% | 1009.6 hPa | 0 mm | - | 0 W/m² | - |
| 1787614419 | 8.89° C | 99% | 1009.7 hPa | 0 mm | - | 0 W/m² | - |
| 1787614116 | 8.89° C | 99% | 1009.7 hPa | 1.27 mm | - | 0 W/m² | - |
| 1787613812 | 8.89° C | 99% | 1009.9 hPa | 1.27 mm | - | 0 W/m² | - |
| 1787613507 | 8.89° C | 99% | 1009.8 hPa | 0 mm | - | 0 W/m² | - |
| 1787613202 | 8.89° C | 99% | 1009.8 hPa | 1.78 mm | - | 0 W/m² | - |
| 1787612899 | 8.89° C | 99% | 1009.9 hPa | 1.27 mm | - | 0 W/m² | - |
| 1787612595 | 8.89° C | 99% | 1010 hPa | 1.27 mm | - | 0 W/m² | - |
| 1787612291 | 8.89° C | 99% | 1009.9 hPa | 1.78 mm | - | 0 W/m² | - |
| 1787611987 | 8.89° C | 99% | 1010.1 hPa | 1.78 mm | - | 0 W/m² | - |
| 1787611683 | 8.89° C | 99% | 1009.7 hPa | 0 mm | - | 0 W/m² | - |
| 1787611379 | 8.89° C | 99% | 1009.7 hPa | 1.27 mm | - | 0 W/m² | - |
| 1787611079 | 8.89° C | 99% | 1009.8 hPa | 1.27 mm | - | 0 W/m² | - |
| 1787610775 | 8.89° C | 99% | 1009.9 hPa | 1.78 mm | - | 0 W/m² | - |
* Rain latest hour (hover to see other rain measurements)
** Current wind speed in m/s (hover to see current wind gust speed)